SKYSAT 2

导读

SKYSAT 2是美国发射的高分辨率遥感卫星,于2014年7月8日发射入轨,隶属于SkySat系列卫星星座。该卫星主要承担对地观测任务,可提供亚米级分辨率的光学遥感影像,服务于城市规划、灾害监测、资源勘探以及地理信息测绘等领域。作为商业遥感卫星领域的代表性项目,它凭借高成像精度,为全球用户提供了高质量的空间地理数据支持,推动了商业遥感应用的发展。

基本信息
目录编号:
40072
目录名称:
SKYSAT 2
国际标识:
2014-037D
轨道中心:
EARTH
卫星名称:
SKYSAT 2
卫星全名:
--
卫星状态:
在轨 (已飞行4402 天)
发射日期:
2014-07-08 UTC
国别 :
美国 (US)
星等 :
--
轨道信息
数据来源 国际轨道数据
星历时间: 2026-07-27T22:30:39+0800
8小时前
查看轨道信息
半长轴: 6981.95km
偏心率: 0.0006422
轨道倾角: 98.386°
近地点辐角 136.261°
升交点赤经 169.882°
平近点角 223.912°
近地点: 599.329km
远地点: 608.297km
周期: 96.766分钟
每日圈数: 14.88119
详细信息
使用方式:
暂无
2D轨道图
3D轨道图
轨道高度分析图
轨道倾角分析图
轨道综合分析图
查看轨道综合分析图